Wind_Speed
46 44 44 45 44 43 44 45 46 45 44 40 37 38 38 37 36 36 35 33 31 29 28 28 27 28 29 30 31 34 35 35 37 39 42 44 45 45 46 48 51 51 49 46
47 45 45 46 44 43 44 44 45 44 42 39 38 37 37 36 35 34 33 32 30 29 29 28 27 27 28 30 31 33 34 35 36 38 39 42 45 46 46 46 48 49 49 46
47 45 46 46 42 42 42 41 42 43 41 39 39 37 37 36 35 33 32 31 29 29 29 28 27 27 28 29 31 32 33 35 35 36 38 39 42 45 45 46 47 49 49 46
48 47 47 44 42 41 41 40 40 41 40 39 38 37 36 35 33 31 30 29 29 29 28 28 27 27 28 29 30 31 32 33 36 37 38 38 40 44 45 45 45 47 47 46
47 48 48 43 41 41 42 41 40 40 39 38 37 37 35 34 33 31 30 30 30 29 29 27 27 28 27 28 29 30 31 34 36 37 37 38 40 42 44 46 45 47 47 46
46 46 46 43 41 42 43 42 40 39 38 38 38 36 33 33 32 31 31 31 30 29 28 27 26 27 28 28 30 31 32 34 37 38 37 38 39 42 43 45 46 47 47 46
44 45 45 42 42 43 43 43 41 39 38 38 37 36 35 33 32 31 31 30 30 29 28 27 26 27 28 28 30 31 32 34 36 37 38 37 38 41 43 43 45 47 46 44
43 45 44 42 42 42 43 42 42 40 39 39 37 35 34 33 32 31 30 29 29 29 29 28 27 27 28 28 30 31 32 33 35 37 38 38 38 39 41 43 45 46 46 44
44 44 42 41 42 42 43 43 42 41 39 38 37 35 34 33 32 31 30 30 29 29 28 28 28 27 28 29 30 31 33 34 35 36 37 38 38 38 41 42 43 45 44 43
44 42 41 42 42 43 43 43 41 41 39 38 37 35 34 33 32 31 31 31 30 29 28 27 28 27 28 29 30 32 33 34 34 35 36 37 38 38 40 42 43 43 42 40
44 42 43 43 43 43 43 43 42 41 40 38 37 35 33 32 32 31 30 30 30 29 28 27 27 27 28 29 30 32 33 34 34 35 36 37 39 40 41 42 43 42 40 39
44 43 45 43 43 43 42 42 41 40 38 37 36 35 33 32 31 30 29 29 30 29 28 27 27 27 28 29 30 32 33 34 35 35 36 38 39 41 41 42 43 43 41 40
43 43 43 42 41 41 41 40 39 38 36 35 34 33 32 31 29 29 29 29 29 28 27 27 27 28 28 29 30 32 33 35 36 36 36 37 39 41 41 42 43 44 42 40
42 41 41 40 39 40 39 38 36 35 33 32 31 31 30 30 29 29 29 29 29 28 28 28 27 28 29 30 30 32 33 35 36 37 37 37 38 41 42 42 42 44 43 40
40 39 38 38 37 38 37 35 34 32 31 31 30 30 30 30 29 29 29 29 28 28 28 28 27 27 29 30 31 32 33 35 36 38 38 38 38 40 41 41 41 41 42 41
36 36 36 36 35 35 34 32 32 31 30 30 29 29 30 30 29 29 29 29 28 27 27 27 26 27 28 29 30 31 33 35 36 37 37 37 38 39 40 41 40 40 40 40
34 34 34 34 33 33 32 31 30 29 28 28 28 28 28 28 28 28 28 28 27 26 26 25 26 27 28 29 30 31 32 35 36 38 38 38 39 40 41 40 40 40 39 39
32 32 31 31 30 29 29 28 28 28 27 27 26 26 27 26 26 25 25 25 24 24 24 24 25 26 27 29 30 31 33 35 38 38 39 39 40 41 42 40 40 40 39 40
29 28 28 28 27 25 25 25 25 24 24 24 24 24 24 23 22 22 21 21 21 21 21 22 23 24 26 28 31 33 33 36 37 37 38 39 40 42 42 41 40 40 40 40
26 25 25 24 23 23 23 22 22 21 21 21 21 21 20 20 19 18 18 18 18 18 19 21 21 23 24 26 29 32 34 36 37 37 38 38 39 41 42 41 40 39 40 40
24 23 22 22 22 21 20 19 18 18 18 18 18 17 17 17 17 16 15 16 16 16 17 18 19 21 23 26 29 30 33 36 36 36 37 38 40 41 43 42 41 40 40 40
22 21 21 20 19 17 16 15 15 15 15 15 14 14 14 13 13 13 13 13 13 14 14 16 17 19 21 24 28 30 32 34 35 36 37 37 39 41 42 42 41 41 40 40
19 19 18 16 15 14 13 13 12 13 12 12 13 12 11 10 10 11 10 10 10 11 12 14 16 17 20 23 27 29 32 33 34 35 36 37 39 41 41 41 41 41 41 40
17 16 14 13 13 12 11 11 12 11 11 11 11 11 10 9 8 8 8 8 8 9 11 13 15 16 18 22 25 29 31 33 34 34 35 36 38 40 40 40 41 41 40 39
15 14 13 12 11 11 11 11 11 11 11 10 10 8 8 7 6 6 6 6 7 8 11 13 15 17 19 22 25 28 30 32 33 33 34 35 37 38 39 39 39 39 38 37
13 12 11 11 11 10 10 10 10 10 9 8 7 6 5 4 4 3 3 5 7 9 12 14 16 18 20 23 25 26 28 30 32 33 33 35 36 37 37 37 37 37 36 35
11 10 10 9 9 9 9 9 8 7 6 5 4 3 2 1 0 2 3 6 8 11 13 15 17 19 20 22 24 26 28 30 31 32 33 34 34 35 36 36 35 35 34 34
Wind_Direction
297 297 297 297 300 300 299 300 299 301 301 303 300 296 294 292 293 292 292 289 282 278 274 269 265 257 252 249 244 238 235 231 229 226 223 221 219 219 218 219 219 218 217 218
296 296 295 296 300 300 298 298 299 300 301 300 295 294 294 293 292 291 290 288 284 277 272 270 265 258 251 248 244 239 234 230 228 226 224 223 221 219 217 218 218 218 219 218
296 295 293 296 301 298 297 298 298 299 301 297 294 293 292 291 290 289 286 285 283 279 274 268 263 256 250 246 242 238 233 229 227 227 225 223 221 219 217 217 219 219 220 219
295 294 292 301 300 298 296 297 298 298 298 297 295 293 291 290 289 287 285 283 280 278 274 268 261 255 250 245 239 233 233 231 228 228 225 223 221 219 216 217 219 218 218 217
294 294 295 298 300 298 296 297 299 298 297 296 295 293 290 288 286 285 283 281 279 277 274 269 261 252 246 243 239 235 234 231 227 225 224 223 221 218 216 217 218 217 216 217
292 294 295 299 298 296 296 298 299 297 296 295 294 291 289 286 284 281 280 280 277 276 274 269 261 252 246 244 239 235 232 229 227 227 225 222 219 215 214 214 216 215 216 217
291 292 294 298 296 296 296 299 298 297 296 296 294 291 287 284 281 280 278 277 275 274 273 268 262 254 248 246 241 234 231 230 229 229 226 221 217 213 210 211 213 214 215 216
290 290 295 296 294 294 296 296 296 295 295 295 293 290 287 284 282 280 277 275 273 271 270 267 261 254 249 245 240 235 230 228 227 228 226 221 217 214 212 212 213 213 213 215
288 290 292 292 292 293 294 294 294 294 293 293 292 290 286 284 281 279 277 274 273 271 268 264 260 254 247 243 239 235 230 226 226 227 224 220 216 215 213 212 213 214 213 214
287 289 289 290 291 292 293 293 293 292 292 290 289 288 286 283 280 278 276 274 272 270 267 262 257 253 248 241 237 234 229 226 225 224 221 219 216 213 212 212 212 213 212 212
285 287 287 289 290 291 291 292 292 291 290 289 287 286 285 282 280 278 275 273 271 268 265 261 256 251 247 242 238 233 229 225 222 222 220 217 213 210 210 211 211 211 211 212
285 286 287 289 289 289 291 291 291 290 288 287 285 282 281 280 280 277 273 271 269 267 263 258 254 251 246 242 237 233 230 224 221 220 218 215 212 211 209 208 208 208 208 211
285 286 288 289 288 289 290 290 290 288 287 285 283 281 279 279 279 276 273 269 266 265 262 257 255 250 246 242 237 233 229 225 221 218 217 215 213 211 209 207 208 209 209 211
285 286 287 288 287 288 289 289 289 288 286 285 284 281 279 278 277 275 273 269 265 263 261 258 255 250 244 240 236 232 228 224 220 217 215 213 212 210 209 208 208 209 210 211
284 286 288 288 287 287 288 287 287 286 284 284 283 281 279 278 276 274 272 270 266 263 259 256 253 249 243 238 233 230 225 220 217 214 213 212 211 208 208 207 207 208 210 210
284 286 287 288 288 288 287 286 286 286 284 283 282 282 280 279 277 275 272 268 265 262 258 254 250 246 241 236 230 225 221 217 214 211 211 210 209 207 206 205 204 205 207 209
284 285 286 287 288 288 287 286 286 286 285 284 283 283 282 280 278 276 272 267 265 261 255 251 246 243 239 232 226 221 217 213 210 207 207 206 206 205 203 202 202 203 205 207
286 287 287 288 288 287 286 286 286 286 285 284 284 284 284 281 279 276 271 265 263 260 254 249 243 238 234 227 220 215 211 209 206 205 204 204 204 202 200 200 200 203 204 203
287 288 288 290 289 287 286 286 286 285 285 285 286 286 284 281 278 274 270 265 262 257 250 245 240 234 228 222 216 211 208 206 203 202 201 202 201 200 199 198 199 201 201 200
289 289 290 290 289 288 288 288 286 287 287 287 287 286 285 282 278 273 270 266 263 255 247 243 237 229 222 217 213 209 206 204 202 201 200 200 200 199 197 197 196 196 196 197
290 289 289 289 289 288 288 288 287 288 288 289 289 288 287 285 279 272 269 266 262 256 246 237 228 221 217 213 209 206 203 202 201 200 199 199 198 197 196 194 194 193 194 195
289 289 289 289 287 287 285 285 287 290 292 292 292 291 290 288 282 276 271 265 257 249 236 224 216 213 212 209 204 201 198 197 198 197 197 196 195 194 193 192 192 192 193 194
289 290 288 286 285 282 281 284 287 291 294 297 296 292 288 288 285 277 269 264 253 235 223 215 211 208 204 200 196 193 191 191 193 193 193 194 193 191 190 190 191 192 193 194
288 288 286 285 283 279 281 284 289 292 296 299 299 294 287 285 285 277 269 260 241 223 212 204 199 195 191 189 188 187 187 187 187 188 189 189 189 188 188 189 190 191 193 193
286 284 282 282 281 279 281 286 290 293 297 301 300 294 288 283 280 277 264 244 222 203 195 189 185 182 181 182 181 181 182 182 183 184 185 186 186 185 185 187 188 188 189 191
284 281 278 278 279 282 285 289 293 294 298 299 299 296 290 288 286 271 226 199 184 176 175 174 172 171 171 173 176 178 179 180 180 181 182 181 181 182 183 185 186 186 188 190
281 277 276 277 279 284 290 294 296 297 296 292 292 297 303 315 156 154 148 149 154 158 162 164 164 165 168 170 173 174 175 175 176 177 178 178 178 181 181 181 183 184 186 188
Height
5561 5558 5553 5549 5546 5541 5534 5528 5521 5518 5514 5513 5508 5502 5498 5494 5490 5487 5484 5482 5479 5478 5477 5476 5477 5477 5478 5479 5481 5483 5486 5490 5496 5501 5508 5515 5522 5530 5539 5548 5557 5566 5574 5583
5548 5547 5540 5536 5535 5530 5524 5518 5512 5506 5504 5502 5496 5492 5488 5485 5481 5478 5475 5473 5471 5470 5469 5469 5469 5470 5471 5472 5474 5476 5479 5483 5488 5494 5500 5507 5514 5522 5531 5539 5548 5558 5566 5574
5534 5533 5527 5525 5526 5519 5513 5509 5503 5496 5495 5490 5486 5483 5479 5476 5472 5469 5467 5465 5463 5462 5461 5461 5461 5462 5463 5465 5467 5469 5472 5477 5482 5487 5493 5500 5507 5515 5524 5532 5541 5549 5558 5567
5521 5519 5513 5518 5513 5507 5501 5498 5493 5487 5483 5479 5476 5472 5469 5466 5463 5460 5458 5457 5455 5454 5453 5453 5454 5454 5456 5457 5459 5462 5466 5469 5475 5480 5486 5493 5500 5508 5516 5524 5533 5542 5550 5559
5508 5503 5500 5505 5501 5494 5488 5487 5484 5477 5473 5469 5465 5462 5460 5456 5453 5452 5450 5448 5447 5445 5445 5445 5446 5447 5449 5450 5452 5455 5459 5463 5468 5474 5480 5486 5494 5501 5508 5517 5525 5534 5542 5551
5497 5491 5488 5493 5488 5481 5477 5475 5473 5467 5463 5459 5455 5452 5451 5447 5445 5443 5441 5440 5438 5437 5437 5437 5438 5439 5441 5443 5445 5448 5452 5456 5461 5466 5472 5479 5485 5493 5500 5508 5517 5526 5534 5543
5486 5479 5477 5481 5475 5470 5466 5464 5460 5456 5452 5448 5445 5442 5440 5438 5436 5434 5433 5431 5430 5429 5428 5428 5429 5431 5433 5435 5438 5441 5445 5449 5454 5459 5464 5471 5477 5485 5493 5501 5510 5518 5527 5535
5475 5469 5470 5468 5462 5459 5456 5451 5448 5444 5441 5438 5435 5432 5429 5427 5426 5424 5423 5422 5421 5420 5420 5420 5421 5422 5424 5427 5430 5433 5437 5441 5446 5451 5456 5463 5470 5478 5485 5494 5502 5511 5520 5528
5464 5462 5460 5455 5450 5447 5443 5440 5437 5433 5430 5427 5424 5421 5419 5417 5415 5414 5413 5413 5412 5411 5411 5412 5412 5413 5416 5419 5421 5425 5429 5434 5438 5443 5449 5456 5463 5470 5478 5486 5495 5503 5512 5521
5450 5450 5447 5442 5438 5435 5431 5428 5425 5422 5419 5416 5413 5411 5409 5407 5406 5404 5404 5403 5402 5402 5402 5403 5403 5404 5407 5409 5412 5416 5421 5426 5430 5436 5441 5448 5456 5463 5471 5479 5488 5497 5505 5514
5437 5437 5433 5431 5427 5423 5420 5416 5413 5411 5408 5405 5402 5400 5398 5397 5396 5394 5394 5393 5392 5392 5393 5393 5394 5396 5398 5400 5404 5408 5412 5417 5423 5428 5434 5441 5448 5456 5464 5473 5481 5491 5499 5507
5426 5425 5420 5419 5416 5412 5408 5405 5402 5399 5396 5394 5391 5389 5388 5387 5385 5384 5384 5383 5383 5383 5384 5385 5385 5387 5389 5391 5394 5398 5403 5409 5415 5421 5427 5434 5441 5449 5457 5465 5474 5483 5492 5500
5413 5411 5408 5406 5403 5400 5397 5394 5391 5388 5385 5383 5381 5379 5378 5377 5375 5375 5374 5374 5373 5374 5374 5375 5376 5378 5380 5382 5385 5390 5395 5400 5406 5413 5420 5427 5434 5442 5450 5459 5467 5476 5485 5493
5401 5398 5396 5394 5391 5388 5385 5383 5380 5377 5375 5373 5371 5369 5368 5367 5366 5365 5364 5364 5364 5364 5365 5366 5367 5368 5370 5373 5377 5381 5386 5392 5398 5405 5412 5420 5427 5435 5444 5452 5460 5469 5478 5486
5389 5386 5384 5382 5380 5377 5374 5372 5369 5367 5365 5363 5361 5359 5358 5357 5356 5355 5354 5354 5353 5354 5354 5356 5357 5359 5361 5364 5368 5372 5378 5383 5390 5397 5405 5412 5420 5428 5436 5445 5453 5462 5470 5479
5378 5376 5373 5371 5369 5366 5364 5361 5359 5357 5355 5353 5351 5350 5348 5347 5346 5345 5344 5343 5343 5343 5344 5346 5348 5349 5351 5355 5359 5364 5369 5376 5382 5390 5397 5405 5412 5420 5429 5437 5446 5455 5463 5472
5367 5366 5363 5361 5359 5356 5354 5351 5349 5347 5345 5344 5342 5340 5338 5337 5336 5334 5333 5333 5333 5333 5334 5336 5338 5340 5343 5346 5350 5355 5361 5368 5375 5383 5390 5398 5405 5413 5422 5430 5439 5448 5457 5465
5357 5355 5353 5351 5349 5347 5345 5342 5340 5338 5336 5334 5333 5331 5329 5327 5326 5325 5324 5323 5324 5324 5325 5327 5329 5332 5334 5338 5342 5348 5354 5361 5369 5376 5384 5392 5399 5407 5415 5424 5433 5442 5450 5459
5347 5346 5344 5342 5339 5337 5336 5334 5332 5330 5328 5326 5324 5322 5320 5318 5317 5316 5315 5315 5315 5316 5317 5318 5321 5324 5327 5331 5336 5342 5348 5355 5363 5370 5378 5385 5393 5401 5410 5419 5428 5436 5445 5453
5339 5337 5335 5333 5331 5330 5328 5326 5324 5322 5320 5318 5316 5314 5312 5311 5310 5309 5308 5308 5308 5308 5310 5311 5313 5316 5320 5324 5329 5335 5342 5349 5357 5365 5372 5379 5387 5395 5404 5413 5422 5431 5440 5448
5331 5329 5328 5326 5324 5323 5321 5319 5317 5316 5314 5312 5310 5308 5306 5305 5303 5302 5302 5302 5302 5302 5303 5305 5307 5311 5314 5319 5324 5330 5337 5344 5352 5359 5367 5374 5382 5391 5400 5409 5417 5426 5435 5444
5324 5322 5321 5319 5318 5316 5315 5313 5312 5310 5309 5307 5305 5303 5301 5300 5298 5297 5296 5296 5296 5297 5298 5300 5303 5306 5309 5314 5320 5326 5332 5340 5347 5355 5362 5370 5378 5387 5396 5405 5414 5423 5431 5440
5317 5316 5314 5313 5312 5311 5310 5309 5307 5306 5304 5303 5301 5299 5297 5296 5294 5293 5293 5292 5292 5293 5294 5296 5299 5302 5306 5311 5316 5322 5330 5337 5344 5352 5359 5367 5375 5384 5392 5401 5410 5419 5428 5436
5311 5310 5309 5308 5307 5307 5306 5305 5303 5302 5300 5299 5297 5295 5294 5292 5291 5290 5290 5289 5289 5290 5292 5294 5297 5300 5304 5309 5315 5321 5328 5335 5342 5350 5357 5364 5372 5381 5390 5398 5407 5416 5424 5432
5306 5305 5304 5304 5303 5303 5302 5301 5300 5298 5297 5295 5294 5292 5291 5290 5289 5288 5287 5287 5287 5289 5290 5293 5296 5300 5304 5309 5315 5321 5327 5334 5341 5348 5356 5363 5371 5379 5388 5396 5405 5413 5421 5430
5301 5301 5300 5300 5300 5299 5298 5297 5296 5295 5294 5293 5291 5290 5289 5288 5287 5287 5286 5286 5287 5289 5291 5294 5297 5301 5305 5310 5316 5322 5328 5334 5341 5348 5355 5363 5371 5379 5386 5395 5403 5412 5420 5427
5297 5297 5297 5297 5296 5296 5295 5294 5293 5292 5291 5290 5290 5289 5288 5287 5287 5287 5287 5287 5289 5290 5293 5296 5299 5303 5307 5312 5317 5323 5329 5335 5342 5349 5356 5364 5371 5379 5386 5394 5402 5410 5418 5425